Change the Weather History Date:

Tuesday, February 19, 2013

  Actual Average Record
Temperature  
Mean Temperature 23 °F 15 °F  
Max Temperature 32 °F 25 °F 52 °F (1981)
Min Temperature 14 °F 5 °F -26 °F (1966)
Degree Days  
Heating Degree Days 42 50  
Month to date heating degree days 964 994  
Since 1 July heating degree days 5790 6288  
Cooling Degree Days 0 0  
Month to date cooling degree days 0 0  
Year to date cooling degree days 0 0  
Moisture  
Dew Point 11 °F    
Average Humidity 60    
Maximum Humidity 73    
Minimum Humidity 46    
Precipitation  
Precipitation 0.00 in 0.08 in 0.91 in (1998)
Month to date precipitation 1.19 1.48  
Year to date precipitation 3.05 4.19  
Snow  
Snow 0.00 in 0.80 in 7.10 in (1976)
Month to date snowfall 23.0 15.2  
Since 1 July snowfall 66.2 75.5  
Snow Depth 11.00 in    
Sea Level Pressure  
Sea Level Pressure 29.91 in    
Wind  
Wind Speed 7 mph (North)    
Max Wind Speed 21 mph    
Max Gust Speed 29 mph    
Visibility 10 miles    
Events      
T = Trace of Precipitation, MM = Missing Value Source: NWS Daily Summary

Daily Weather History Graph

Daily Weather History Graph

Search for Another Location

Airport or City:

Trip Planner

Search our weather history database for the weather conditions in past years. The results will help you decide how hot, cold, wet, or windy it might be!

Date:

Astronomy

Feb. 19, 2013 Rise Set
Actual Time 6:29 AM EST 5:03 PM EST
Civil Twilight 5:58 AM EST 5:34 PM EST
Nautical Twilight 5:22 AM EST 6:09 PM EST
Astronomical Twilight 4:47 AM EST 6:44 PM EST
Moon 11:20 AM EST (2/19) 2:09 AM EST (2/19)
Length of Visible Light 11h 35m
Length of Day
10h 33m
Waxing Gibbous, 67% of the Moon is Illuminated
Feb 19
Waxing Gibbous
Feb 25
Full
Mar 4
Last Quarter
Mar 11
New
Mar 19
First Quarter

Hourly Weather History & Observations

Time (EST) Temp. Windchill Dew Point Humidity Pressure Visibility Wind Dir Wind Speed Gust Speed Precip Events Conditions
12:54 AM 18.0 °F 5.4 °F 6.1 °F 60% 29.81 in 10.0 mi WNW 11.5 mph 20.7 mph N/A   Clear
1:54 AM 18.0 °F 5.4 °F 6.1 °F 60% 29.85 in 10.0 mi WNW 11.5 mph - N/A   Clear
2:54 AM 17.1 °F 2.5 °F 6.1 °F 62% 29.85 in 10.0 mi WNW 15.0 mph 28.8 mph N/A   Clear
3:54 AM 17.1 °F 5.0 °F 6.1 °F 62% 29.88 in 10.0 mi West 10.4 mph - N/A   Clear
4:54 AM 16.0 °F 2.9 °F 7.0 °F 68% 29.91 in 10.0 mi WNW 11.5 mph - N/A   Clear
5:54 AM 15.1 °F 3.3 °F 6.1 °F 68% 29.93 in 10.0 mi WNW 9.2 mph - N/A   Clear
6:54 AM 14.0 °F 3.9 °F 6.1 °F 71% 29.97 in 10.0 mi WNW 6.9 mph - N/A   Clear
7:54 AM 17.1 °F 10.0 °F 7.0 °F 65% 29.99 in 10.0 mi WNW 4.6 mph - N/A   Clear
8:54 AM 19.0 °F 8.2 °F 8.1 °F 62% 30.01 in 10.0 mi NW 9.2 mph - N/A   Clear
9:54 AM 21.0 °F 8.1 °F 9.0 °F 60% 30.01 in 10.0 mi NW 13.8 mph - N/A   Clear
10:54 AM 25.0 °F 17.1 °F 10.9 °F 55% 30.01 in 10.0 mi NNW 6.9 mph - N/A   Clear
11:54 AM 28.0 °F - 10.9 °F 49% 30.01 in 10.0 mi Calm Calm - N/A   Clear
1:54 PM 30.9 °F - 12.9 °F 47% 29.98 in 10.0 mi Calm Calm - N/A   Clear
2:54 PM 30.9 °F 24.3 °F 14.0 °F 50% 29.97 in 10.0 mi SE 6.9 mph - N/A   Mostly Cloudy
3:54 PM 28.9 °F 25.2 °F 14.0 °F 54% 29.95 in 10.0 mi ESE 3.5 mph - N/A   Clear
4:54 PM 28.0 °F 22.8 °F 14.0 °F 56% 29.94 in 10.0 mi East 4.6 mph - N/A   Clear
5:54 PM 27.0 °F 20.5 °F 14.0 °F 58% 29.91 in 10.0 mi ENE 5.8 mph - N/A   Clear
7:54 PM 27.0 °F - 14.0 °F 58% 29.90 in 10.0 mi Calm Calm - N/A   Clear
8:54 PM 27.0 °F 20.5 °F 15.1 °F 61% 29.86 in 10.0 mi East 5.8 mph - N/A   Clear
9:54 PM 28.0 °F 22.8 °F 16.0 °F 61% 29.84 in 10.0 mi East 4.6 mph - N/A   Clear
10:54 PM 28.0 °F 24.2 °F 16.0 °F 61% 29.83 in 10.0 mi ENE 3.5 mph - N/A   Overcast
11:52 PM 28.4 °F 22.2 °F 17.6 °F 64% 29.77 in 10.0 mi East 5.8 mph - N/A   Overcast
11:54 PM 28.0 °F 21.7 °F 17.1 °F 63% 29.80 in 10.0 mi East 5.8 mph - N/A   Overcast